Weather History for Rochelle, IL

Change the Weather History Date:

Tuesday, February 5, 2013

  Actual Average (KRFD) Record (KRFD)
Temperature  
Mean Temperature 18 °F 23 °F  
Max Temperature 30 °F 31 °F 56 °F (1946)
Min Temperature 6 °F 15 °F -21 °F (1979)
Degree Days  
Heating Degree Days 47 42  
Month to date heating degree days 211  
Since 1 July heating degree days 4120  
Cooling Degree Days 0 0  
Month to date cooling degree days 0  
Year to date cooling degree days 0  
Moisture  
Dew Point 19 °F    
Average Humidity 86    
Maximum Humidity 93    
Minimum Humidity 74    
Precipitation  
Precipitation 0.00 in 0.04 in 0.59 in (1953)
Month to date precipitation 0.20  
Year to date precipitation 1.57  
Snow  
Snow 0.00 in 0.30 in 5.00 in (1924)
Month to date snowfall 1.6  
Since 1 July snowfall 24.9  
Snow Depth -    
Sea Level Pressure  
Sea Level Pressure 29.91 in    
Wind  
Wind Speed 6 mph (WSW)    
Max Wind Speed 18 mph    
Max Gust Speed 22 mph    
Visibility 8 miles    
Events Rain , Snow    
T = Trace of Precipitation, MM = Missing Value Source: NWS Daily Summary

Daily Weather History Graph

Daily Weather History Graph

Search for Another Location

Airport:

Trip Planner

Search our weather history database for the weather conditions in past years. The results will help you decide how hot, cold, wet, or windy it might be!

Date:

Astronomy

Feb. 05, 2013 Rise Set
Actual Time 7:04 AM CST 5:17 PM CST
Civil Twilight 6:35 AM CST 5:46 PM CST
Nautical Twilight 6:01 AM CST 6:19 PM CST
Astronomical Twilight 5:29 AM CST 6:51 PM CST
Moon 2:47 AM CST (2/5) 12:32 PM CST (2/5)
Length of Visible Light 11h 11m
Length of Day
10h 12m
Waning Crescent, 26% of the Moon is Illuminated
Feb 5
Waning Crescent
Feb 10
New
Feb 17
First Quarter
Feb 25
Full
Mar 4
Last Quarter

Hourly Weather History & Observations

Time (CST) Temp. Windchill Dew Point Humidity Pressure Visibility Wind Dir Wind Speed Gust Speed Precip Events Conditions
12:15 AM 8.4 °F - 6.3 °F 91% 29.95 in 10.0 mi Calm Calm - N/A   Clear
12:35 AM 9.3 °F - 6.3 °F 87% 29.93 in 10.0 mi Calm Calm - N/A   Clear
12:55 AM 8.6 °F - 5.9 °F 89% 29.93 in 10.0 mi Calm Calm - N/A   Clear
1:15 AM 8.6 °F - 5.5 °F 87% 29.93 in 10.0 mi Calm Calm - N/A   Clear
1:35 AM 7.9 °F - 4.8 °F 87% 29.94 in 10.0 mi Calm Calm - N/A   Clear
1:55 AM 7.0 °F -1.7 °F 4.3 °F 89% 29.92 in 10.0 mi SSW 4.6 mph - N/A   Clear
2:15 AM 6.8 °F -0.1 °F 4.5 °F 90% 29.92 in 10.0 mi South 3.5 mph - N/A   Clear
2:35 AM 8.4 °F 1.8 °F 5.2 °F 87% 29.90 in 10.0 mi SSE 3.5 mph - N/A   Clear
2:55 AM 8.6 °F 0.1 °F 5.4 °F 87% 29.91 in 10.0 mi SW 4.6 mph - N/A   Clear
3:15 AM 7.7 °F - 4.8 °F 88% 29.89 in 10.0 mi Calm Calm - N/A   Clear
3:35 AM 7.3 °F -1.3 °F 4.6 °F 89% 29.89 in 10.0 mi South 4.6 mph - N/A   Clear
3:55 AM 10.0 °F 3.6 °F 5.9 °F 83% 29.89 in 10.0 mi South 3.5 mph - N/A   Mostly Cloudy
4:15 AM 12.6 °F 4.8 °F 6.8 °F 78% 29.90 in 10.0 mi SSW 4.6 mph - N/A   Overcast
4:35 AM 13.3 °F 3.0 °F 7.7 °F 78% 29.89 in 10.0 mi SSW 6.9 mph - N/A   Overcast
4:55 AM 13.8 °F 4.9 °F 9.0 °F 81% 29.90 in 10.0 mi SW 5.8 mph - N/A   Overcast
5:15 AM 14.9 °F 5.0 °F 10.2 °F 82% 29.89 in 10.0 mi SSW 6.9 mph - N/A   Overcast
5:35 AM 15.4 °F 4.6 °F 12.0 °F 86% 29.88 in 3.0 mi South 8.1 mph - N/A Snow Light Snow
6:15 AM 16.7 °F 6.2 °F 14.9 °F 93% 29.86 in 5.0 mi South 8.1 mph - N/A Snow Light Snow
6:35 AM 17.6 °F 6.4 °F 15.8 °F 93% 29.86 in 5.0 mi South 9.2 mph - N/A Snow Light Snow
6:55 AM 18.3 °F 8.2 °F 16.2 °F 91% 29.87 in 10.0 mi SSW 8.1 mph - N/A   Overcast
7:15 AM 18.5 °F 8.4 °F 16.7 °F 93% 29.86 in 10.0 mi South 8.1 mph - N/A   Overcast
7:35 AM 19.2 °F 7.0 °F 17.1 °F 91% 29.85 in 10.0 mi South 11.5 mph - N/A   Overcast
7:55 AM 19.8 °F 6.5 °F 17.6 °F 91% 29.84 in 10.0 mi South 13.8 mph - N/A   Mostly Cloudy
8:15 AM 20.1 °F 6.9 °F 18.0 °F 91% 29.84 in 7.0 mi SSW 13.8 mph - N/A   Scattered Clouds
8:35 AM 19.4 °F 7.9 °F 17.2 °F 91% 29.84 in 7.0 mi SSW 10.4 mph - N/A   Scattered Clouds
8:55 AM 21.0 °F 9.3 °F 18.5 °F 90% 29.83 in 7.0 mi South 11.5 mph - N/A   Clear
9:15 AM 21.9 °F 9.8 °F 19.4 °F 90% 29.82 in 7.0 mi South 12.7 mph - N/A   Scattered Clouds
9:55 AM 24.4 °F 11.9 °F 21.7 °F 89% 29.81 in 7.0 mi SSW 15.0 mph - N/A   Scattered Clouds
10:15 AM 25.5 °F 13.8 °F 22.6 °F 89% 29.81 in 7.0 mi SW 13.8 mph - N/A   Scattered Clouds
10:55 AM 27.7 °F 16.6 °F 24.1 °F 86% 29.81 in 7.0 mi WSW 13.8 mph - N/A   Overcast
11:15 AM 28.4 °F 16.2 °F 24.6 °F 86% 29.82 in 7.0 mi WSW 17.3 mph - N/A   Overcast
11:35 AM 28.4 °F 16.2 °F 24.8 °F 86% 29.82 in 7.0 mi WSW 17.3 mph - N/A   Overcast
11:55 AM 28.8 °F 16.6 °F 25.0 °F 86% 29.81 in 7.0 mi WSW 17.3 mph 21.9 mph N/A   Overcast
12:15 PM 29.3 °F 17.7 °F 25.7 °F 86% 29.80 in 5.0 mi WSW 16.1 mph - N/A   Overcast
12:55 PM 30.0 °F 17.9 °F 25.9 °F 85% 29.80 in 5.0 mi West 18.4 mph - N/A   Overcast
1:15 PM 29.3 °F 18.2 °F 26.4 °F 89% 29.81 in 1.0 mi West 15.0 mph - N/A Snow Light Snow
1:35 PM 29.8 °F 19.3 °F 27.5 °F 91% 29.81 in 1.5 mi West 13.8 mph - N/A Snow Light Snow
1:55 PM 29.8 °F 19.3 °F 27.3 °F 90% 29.81 in 3.0 mi West 13.8 mph - N/A Rain Light Freezing Rain
2:15 PM 29.8 °F 20.3 °F 27.0 °F 89% 29.81 in 4.0 mi West 11.5 mph 16.1 mph N/A Rain Light Freezing Rain
2:35 PM 30.2 °F 20.2 °F 27.1 °F 88% 29.82 in 5.0 mi West 12.7 mph - N/A Rain Light Freezing Rain
2:55 PM 30.4 °F 20.5 °F 26.6 °F 86% 29.84 in 7.0 mi West 12.7 mph - N/A   Overcast
3:15 PM 30.4 °F 19.5 °F 26.4 °F 85% 29.85 in 7.0 mi West 15.0 mph - N/A   Overcast
3:55 PM 29.8 °F 19.3 °F 25.7 °F 85% 29.88 in 7.0 mi NW 13.8 mph 21.9 mph N/A   Overcast
4:15 PM 29.7 °F 19.6 °F 25.9 °F 86% 29.89 in 7.0 mi WNW 12.7 mph - N/A   Overcast
5:15 PM 28.9 °F 18.2 °F 24.8 °F 84% 29.92 in 7.0 mi WNW 13.8 mph - N/A   Overcast
5:35 PM 29.1 °F 20.6 °F 24.8 °F 84% 29.93 in 10.0 mi WNW 9.2 mph - N/A   Overcast
5:55 PM 29.5 °F 19.9 °F 24.8 °F 83% 29.94 in 10.0 mi WNW 11.5 mph - N/A   Overcast
6:15 PM 29.7 °F 20.7 °F 25.3 °F 84% 29.95 in 10.0 mi WNW 10.4 mph - N/A   Overcast
6:35 PM 30.0 °F 21.7 °F 25.3 °F 83% 29.96 in 10.0 mi WNW 9.2 mph - N/A   Overcast
6:55 PM 30.0 °F 21.7 °F 25.5 °F 83% 29.97 in 10.0 mi NW 9.2 mph - N/A   Overcast
7:15 PM 29.8 °F 23.0 °F 26.1 °F 86% 29.98 in 10.0 mi WNW 6.9 mph - N/A   Overcast
7:35 PM 29.8 °F 24.9 °F 25.9 °F 85% 29.99 in 10.0 mi NNW 4.6 mph - N/A   Overcast
7:55 PM 30.0 °F 24.1 °F 25.9 °F 85% 29.99 in 10.0 mi WNW 5.8 mph - N/A   Overcast
8:15 PM 30.2 °F 25.4 °F 26.1 °F 85% 29.99 in 10.0 mi WNW 4.6 mph - N/A   Overcast
8:35 PM 30.2 °F 24.3 °F 26.1 °F 85% 30.00 in 10.0 mi WNW 5.8 mph - N/A   Overcast
8:55 PM 30.2 °F 24.3 °F 25.7 °F 83% - 10.0 mi WNW 5.8 mph - N/A   Overcast
9:15 PM 30.2 °F 25.4 °F 25.5 °F 83% 30.02 in 10.0 mi WNW 4.6 mph - N/A   Overcast
9:35 PM 30.2 °F 26.7 °F 25.5 °F 83% 30.03 in 10.0 mi WNW 3.5 mph - N/A   Overcast
9:55 PM 29.8 °F - 25.7 °F 85% 30.04 in 10.0 mi Calm Calm - N/A   Overcast
10:15 PM 30.2 °F 22.6 °F 24.4 °F 79% 30.05 in 10.0 mi NNW 8.1 mph - N/A   Overcast
10:35 PM 30.0 °F 23.2 °F 23.5 °F 77% 30.05 in 10.0 mi NNW 6.9 mph - N/A   Overcast
10:55 PM 29.5 °F 22.5 °F 23.4 °F 78% 30.05 in 10.0 mi NNW 6.9 mph - N/A   Overcast
11:15 PM 29.1 °F 22.1 °F 22.5 °F 76% 30.06 in 10.0 mi NW 6.9 mph - N/A   Overcast
11:35 PM 28.9 °F 23.9 °F 21.6 °F 74% 30.08 in 10.0 mi NW 4.6 mph - N/A   Overcast
11:55 PM 28.8 °F 25.0 °F 22.1 °F 76% 30.08 in 10.0 mi NNW 3.5 mph - N/A   Overcast